Regional Weather Roundup
Issued by NWS

Home | Current Version | Previous Version | Graphics & Text | Print | Product List | Glossary Off
Versions: 1 2 3 4 5 6 7 8 9 10 11 12 13 14 15 16 17 18 19 20 21 22 23 24 25 26 27 28 29 30 31 32 33 34 35 36 37 38 39 40 41 42 43 44 45 46 47 48 49 50

000
ASUS43 KMKX 210421
RWRWI

WISCONSIN REGIONAL WEATHER ROUNDUP
NATIONAL WEATHER SERVICE MILWAUKEE/SULLIVAN WI
1000 PM CST MON FEB 20 2017

NOTE: "FAIR" INDICATES FEW OR NO CLOUDS BELOW 12,000 FEET WITH NO
SIGNIFICANT WEATHER AND/OR OBSTRUCTIONS TO VISIBILITY.

WIZ001-002-006>008-014>016-023>028-210500-
NORTHWEST WISCONSIN

CITY           SKY/WX    TMP DP  RH WIND       PRES   REMARKS
SUPERIOR ARPT  DRIZZLE   37  37 100 CALM      29.61S
ASHLAND        CLOUDY    50  48  93 S10       29.62F
HAYWARD        CLOUDY    50  48  93 S8        29.65F
SIREN          CLOUDY    51  51  97 SW10G16   29.65S FOG
CUMBERLAND     CLOUDY    48  46  93 SW13      29.67S FOG
RICE LAKE      CLOUDY    50  50  97 S10       29.69F FOG
CHETEK         CLOUDY    51  51 100 S8        29.68F FOG
LADYSMITH      DRZL/FOG  50  49  98 S9        29.70S VSB 1/2
EAU CLAIRE     CLOUDY    52  52 100 S12       29.70F
MENOMONIE      CLOUDY    52  52 100 SW12      29.71S
NEW RICHMOND   CLOUDY    51  51 100 W15       29.70R FOG
OSCEOLA        CLOUDY    52  52 100 W20       29.72R FOG
$$

WIZ003>005-009-010-017-018-210500-
NORTH CENTRAL WISCONSIN

CITY           SKY/WX    TMP DP  RH WIND       PRES   REMARKS
MANITOWISH WTR RAIN      44  44 100 S9        29.68F
ARBOR VITAE    LGT RAIN  47  46  96 S10       29.71F
WOODRUFF       LGT RAIN  47  46  96 S10       29.71F
RHINELANDER    LGT RAIN  48  48 100 S9        29.75F FOG
EAGLE RIVER    LGT RAIN  46  46 100 S9        29.74F
LAND O LAKES   LGT RAIN  46  46  99 S8        29.72F
PHILLIPS       CLOUDY    48  48 100 S9        29.67F
TOMAHAWK       LGT RAIN  46  45  97 CALM      29.73F VSB 1/2
MEDFORD        FOG       47  47  99 S12       29.71F VSB<1/4
MERRILL        NOT AVBL
$$

WIZ029-030-035-036-043>047-210500-
CENTRAL WISCONSIN

CITY           SKY/WX    TMP DP  RH WIND       PRES   REMARKS
WAUSAU         LGT RAIN  47  47 100 S8        29.76F VSB 1/4
MOSINEE        LGT RAIN  46  46 100 SE8       29.76F VSB<1/4
MARSHFIELD     FOG       49  48  97 S9        29.74F VSB 1/4
STEVENS POINT  LGT RAIN  48  48 100 S5        29.80F VSB 3/4
WAUPACA        LGT RAIN  51  50  95 S9        29.82F
WAUTOMA        LGT RAIN  52  51  97 S6        29.83F FOG
WISC RAPIDS    LGT RAIN  54  54 100 SW8       29.80F FOG
CAMP DOUGLAS   LGT RAIN  55  55 100 S10       29.79S
$$

WIZ011>013-019>022-031-037>040-048>050-210500-
NORTHEAST WISCONSIN

CITY           SKY/WX    TMP DP  RH WIND       PRES   REMARKS
ANTIGO         RAIN      42  42 100 S8        29.79F VSB 1/2
SHAWANO        RAIN      49  47  92 S5        29.82S
OCONTO         CLOUDY    45  41  86 S12G21    29.83S
STURGEON BAY   LGT RAIN  46  40  79 S22G33    29.84F
GREEN BAY      RAIN      52  46  80 S16G25    29.82F
MANITOWOC      LGT RAIN  44  38  79 MISG      29.88F
APPLETON       DRIZZLE   48  43  81 S12       29.82S FOG
CLINTONVILLE   LGT RAIN  46  46 100 S10       29.80F
OSHKOSH        LGT RAIN  52  46  80 SW12      29.84R
$$

WIZ032>034-041-042-053>061-210500-
SOUTHWEST WISCONSIN

CITY           SKY/WX    TMP DP  RH WIND       PRES   REMARKS
LA CROSSE      CLOUDY    56  54  93 S9        29.78R
SPARTA         CLOUDY    55  55  99 S7        29.80R
VIROQUA        CLOUDY    55  55 100 SW14G22   29.81S
BOSCOBEL       LGT RAIN  59  56  89 SW8       29.84S
PRAIRIE DU CHI DRIZZLE   55  54  97 S7        29.82F
PLATTEVILLE    CLOUDY    54  54 100 SW3       29.87F VSB 1/2
$$

WIZ056-057-062-063-064-067-068-210500-
SOUTH CENTRAL WISCONSIN

CITY           SKY/WX    TMP DP  RH WIND       PRES   REMARKS
REEDSBURG      CLOUDY    55  55 100 S10       29.83S
BARABOO/DELLS  CLOUDY    54  53  94 S10       29.84F FOG
LONE ROCK      LGT RAIN  57  54  89 VRB3      29.84F
MINERAL POINT  LGT RAIN  55  55 100 SW9       29.87F
MADISON        LGT RAIN  56  55  97 SW6       29.87R FOG
MIDDLETON        N/A     57  57 100 SW6       29.87F
WATERTOWN      CLOUDY    55  52  89 S9        29.87R
MONROE         DRIZZLE   55  54  94 S12       29.88S
JANESVILLE     RAIN      59  50  72 SW7       29.89S
$$

WIZ051-052-058>065-066-070>072-210500-
SOUTHEAST WISCONSIN

CITY           SKY/WX    TMP DP  RH WIND       PRES   REMARKS
MILWAUKEE      CLOUDY    57  42  57 S15       29.89F
WAUKESHA       CLOUDY    54  43  66 S12       29.88F
MILWAUKEE/TIMM CLOUDY    55  39  54 S12G18    29.88F
RACINE         CLOUDY    49  39  68 S15G24    29.91F
KENOSHA        CLOUDY    56  43  61 S12       29.89F
FOND DU LAC    LGT RAIN  55  46  71 S15       29.84R
SHEBOYGAN      LGT RAIN  48  40  73 S16G23    29.87F
WEST BEND      CLOUDY    55  45  67 S8        29.87S
JUNEAU         DRIZZLE   53  49  84 S10       29.88R
$$

LSZ147-162-210500-
LAKE SUPERIOR

STATION/POSITION TIME  TEMP    WIND        PRES    WAVE
                       AIR SEA DIR/SP/G            HT/PER
                 (UTC) (F)     (DEG/KT/KT) (MB)    (FT/S)
DEVILS ISLAND    0400   45     210/ 13/ 17 1002.4F
PORT WING        0340   35     360/  2/  3 1003.0R
SAXON HARBOR     0340   51     190/  5/ 11 1003.0F
$$

LMZ867-665-643>646-210500-
LAKE MICHIGAN

STATION/POSITION TIME  TEMP    WIND        PRES    WAVE
                       AIR SEA DIR/SP/G            HT/PER
                 (UTC) (F)     (DEG/KT/KT) (MB)    (FT/S)
CHAMBERS ISLAND  0340   47     130/ 13/ 24 1009.8F
NORTHPORT PIER   0340   43     150/ 15/ 21 1010.8F
SISTER BAY       0335   46     180/ 20/ 25   N/A
KEWAUNEE LAKESHO 0354   42     190/ 14/ 17 1011.3F
SHEBOYGAN LAKESH 0400   42     180/ 17/ 19 1012.1F
PORT WASHINGTON  0330   42     190/  4/  8 1013.5F
MILWAUKEE LAKESH 0400   43     150/ 15/ 16   N/A
KENOSHA   LAKESH 0400   44     180/ 20/ 22 1011.9
$$

TC  - TEMPERATURE IN CELSIUS
VSB - VISIBILITY IN STATUTE MILES
WCI - WIND CHILL INDEX
HX  - HEAT INDEX





USA.gov is the U.S. government's official web portal to all federal, state and local government web resources and services.